[[{"header":{"parameterUnit":"m.s-1","parameterCategory":1,"la1":30.2991,"la2":30.254,"lo1":-89.0895,"lo2":-89.0444,"dy":0.0017,"dx":0.0017,"nx":28,"ny":28,"refTime":"2025-04-30T09:00:00:Z","depth":0,"parameterNumber":2,"parameterNumberName":"U-component_of_WINDS"},"data":[0,0,0,0,0,0,0,0,0,0,0,0,0,0,0,0,0,0,0,0,0,0,0,0,0,0,0,0,0,0,0,0,0,0,0,0,0,0,0,0,0,0,0,0,0,0,0,0,0,0,0,0,0,0,0,0,0,0,-2.5032,-2.5033,0,-2.5128,-2.5129,-2.513,-2.5123,-2.5121,-2.512,-2.5119,-2.5214,-2.5218,-2.5222,0,0,0,0,0,0,0,0,0,0,0,0,0,-2.4841,-2.4845,-2.5032,-2.5033,-2.5034,-2.5127,-2.5129,-2.513,-2.5123,-2.5121,-2.512,-2.5118,-2.5213,-2.5218,-2.5222,0,0,0,0,0,0,0,0,0,0,0,0,0,-2.4929,-2.4846,-2.5032,-2.5042,-2.5044,-2.5127,-2.5129,-2.513,-2.5124,-2.5121,-2.5119,-2.5117,-2.5212,-2.5217,-2.5223,-2.5301,0,0,-2.5241,-2.5243,0,0,0,0,0,0,0,0,-2.4924,-2.4936,-2.504,-2.5042,-2.5044,-2.5111,-2.5097,-2.5188,-2.5124,-2.5093,-2.5119,-2.5116,-2.5182,-2.519,-2.5212,-2.5306,-2.531,-2.5241,-2.5245,-2.5247,-2.5249,0,0,0,0,0,0,0,-2.4918,-2.4932,-2.507,-2.5041,-2.5044,-2.5041,-2.5052,-2.5114,-2.5148,-2.5096,-2.5096,-2.5107,-2.5182,-2.5207,-2.5214,-2.5311,-2.5241,-2.5246,-2.525,-2.5252,-2.5473,-2.5475,0,0,0,0,0,0,-2.491,-2.4927,-2.5067,-2.5073,-2.4978,-2.5047,-2.5058,-2.5092,-2.5147,-2.5154,-2.5109,-2.5106,-2.5198,-2.5208,-2.5218,-2.5313,-2.5247,-2.5253,-2.5256,-2.5471,-2.5474,-2.5476,0,0,0,0,0,0,-2.4906,-2.4923,-2.5063,-2.5,-2.5018,-2.5052,-2.509,-2.5095,-2.5119,-2.5157,-2.5163,-2.5128,-2.5197,-2.521,-2.5281,-2.5316,-2.5255,-2.5261,-2.5468,-2.5472,-2.5475,-2.5504,0,0,0,0,0,0,-2.4901,-2.4921,-2.4952,-2.5001,-2.5021,-2.5125,-2.5092,-2.5098,-2.5129,-2.5127,-2.5176,-2.5182,-2.5196,-2.5272,-2.5286,-2.5323,-2.5265,-2.5465,-2.5469,-2.5474,-2.55,-2.5508,-2.5515,0,0,0,0,0,-2.4894,-2.4956,-2.4953,-2.497,-2.506,-2.5127,-2.5139,-2.5153,-2.5132,-2.5163,-2.5187,-2.5181,-2.531,-2.5279,-2.5295,-2.5334,-2.5463,-2.5468,-2.5473,-2.5496,-2.5506,-2.5515,0,0,0,0,0,0,-2.491,-2.4962,-2.496,-2.504,-2.5079,-2.5126,-2.5165,-2.5163,-2.5209,-2.5205,-2.522,-2.5232,-2.5303,-2.5326,-2.5291,-2.5413,-2.5383,-2.5392,-2.5395,-2.5405,-2.5412,-2.5405,-2.527,0,0,0,0,0,-2.4923,-2.4973,-2.5016,-2.5082,-2.5102,-2.513,-2.516,-2.5168,-2.5209,-2.5225,-2.5255,-2.5294,-2.5343,-2.5375,-2.5423,-2.5503,-2.5513,-2.5538,-2.5545,-2.5551,-2.5558,-2.5602,-2.5613,-2.5494,-2.5494,-2.5494,0,0,-2.495,-2.4985,-2.5016,-2.5087,-2.5118,-2.5169,-2.5144,-2.52,-2.5238,-2.5233,-2.5302,-2.5325,-2.537,-2.5446,-2.5481,-2.5467,-2.5594,-2.5558,-2.5562,-2.5567,-2.5609,-2.562,-2.563,-2.5497,-2.5497,-2.5496,0,0,-2.5025,-2.5057,-2.5116,-2.5147,-2.5195,-2.5213,-2.5227,-2.5274,-2.529,-2.5359,-2.5357,-2.5402,-2.5486,-2.5518,-2.5546,-2.5633,-2.5628,-2.5648,-2.5687,-2.5729,-2.5739,-2.5747,-2.5778,-2.5789,-2.5655,-2.5655,-2.5655,0,-2.5053,-2.5131,-2.5146,-2.5202,-2.5233,-2.5232,-2.5291,-2.5321,-2.5381,-2.5402,-2.5386,-2.5492,-2.5522,-2.5605,-2.5627,-2.5649,-2.5665,-2.5642,-2.5736,-2.5745,-2.5753,-2.5782,-2.5794,-2.5657,-2.5657,-2.5657,-2.5656,0,-2.5162,-2.5216,-2.5257,-2.5316,-2.5352,-2.5409,-2.5432,-2.5466,-2.5471,-2.5491,-2.5561,-2.5597,-2.5652,-2.5672,-2.5677,-2.5756,-2.5746,-2.5733,-2.5703,-2.5766,-2.5794,-2.5805,-2.566,-2.5659,-2.5659,-2.5658,0,0,-2.5251,-2.5317,-2.5332,-2.5359,-2.5411,-2.5453,-2.5509,-2.5563,-2.5592,-2.5634,-2.5681,-2.5753,-2.5741,-2.5772,-2.5781,-2.5818,-2.5884,-2.58,-2.5801,-2.5814,-2.5972,-2.5981,-2.5994,-2.5881,-2.5883,-2.5885,-2.5968,0,-2.5331,-2.5433,-2.5448,-2.5537,-2.5587,-2.5586,-2.5635,-2.5672,-2.5692,-2.5736,-2.5757,-2.5808,-2.5789,-2.5807,-2.5844,-2.5868,-2.5916,-2.5862,-2.5925,-2.5927,-2.5914,-2.6009,-2.6019,-2.6096,-2.5979,-2.5981,-2.5982,0,-2.544,-2.5484,-2.5579,-2.5624,-2.5645,-2.5689,-2.574,-2.5782,-2.5824,-2.5835,-2.587,-2.5874,-2.5932,-2.59,-2.598,-2.5943,-2.5969,-2.5985,-2.5988,-2.5994,-2.5958,-2.6018,-2.6121,-2.6132,-2.6,-2.5998,-2.5997,0,-2.5495,-2.5579,-2.5646,-2.5669,-2.5723,-2.5754,-2.5778,-2.5817,-2.5849,-2.5892,-2.5913,-2.5962,-2.5989,-2.6027,-2.6044,-2.602,-2.6123,-2.6092,-2.6133,-2.6133,-2.6155,-2.6153,-2.6264,-2.6172,-2.6172,-2.6172,-2.6171,0,-2.5583,-2.5641,-2.5671,-2.5713,-2.5777,-2.5793,-2.5856,-2.5878,-2.5913,-2.5959,-2.5961,-2.6003,-2.6022,-2.6067,-2.6081,-2.6144,-2.6156,-2.6167,-2.617,-2.6167,-2.6165,-2.6184,-2.6179,-2.6175,-2.6174,-2.6173,-2.6173,0,-2.5656,-2.5679,-2.5752,-2.5797,-2.581,-2.5855,-2.5894,-2.5933,-2.5952,-2.6009,-2.6023,-2.6053,-2.6106,-2.6127,-2.6191,-2.62,-2.6273,-2.6272,-2.626,-2.626,-2.63,-2.6296,-2.6426,-2.6444,-2.6341,-2.6342,-2.6342,0,-2.5711,-2.5756,-2.5806,-2.5836,-2.5862,-2.5911,-2.5943,-2.596,-2.5993,-2.6043,-2.6077,-2.613,-2.6173,-2.6257,-2.6284,-2.6333,-2.6333,-2.6375,-2.634,-2.6336,-2.6333,-2.6331,-2.6335,-2.6382,-2.6383,-2.6383,-2.6384,0,-2.5807,-2.5816,-2.5862,-2.5913,-2.5951,-2.5991,-2.603,-2.6055,-2.6078,-2.6115,-2.6169,-2.6203,-2.6269,-2.6321,-2.6371,-2.6395,-2.6394,-2.6395,-2.6407,-2.6404,-2.6395,-2.6401,-2.6277,-2.6392,-2.6391,-2.6391,-2.639,-2.639,-2.5873,-2.5912,-2.5953,-2.6005,-2.6036,-2.6072,-2.6112,-2.6136,-2.6182,-2.6237,-2.6244,-2.6302,-2.6342,-2.6409,-2.6435,-2.648,-2.6469,-2.6486,-2.6491,-2.6495,-2.6498,-2.6388,-2.6489,-2.6489,-2.6489,-2.6489,-2.6489,0,-2.5969,-2.5995,-2.6042,-2.6097,-2.6137,-2.6133,-2.6175,-2.6209,-2.6261,-2.6298,-2.634,-2.6402,-2.6453,-2.6484,-2.6534,-2.6564,-2.6565,-2.6577,-2.6575,-2.658,-2.6505,-2.649,-2.6576,-2.6576,-2.6576,-2.6576,-2.6576,-2.6576,-2.6023,-2.6089,-2.6103,-2.6184,-2.621,-2.6267,-2.6292,-2.6325,-2.6355,-2.6424,-2.6467,-2.6486,-2.6521,-2.6574,-2.662,-2.6627,-2.6646,-2.6659,-2.6665,-2.6595,-2.6586,-2.6577,-2.6563,-2.6663,-2.6663,-2.6737,-2.6738,-2.6738]},{"header":{"parameterUnit":"m.s-1","parameterCategory":1,"la1":30.2991,"la2":30.254,"lo1":-89.0895,"lo2":-89.0444,"dy":0.0017,"dx":0.0017,"nx":28,"ny":28,"refTime":"2025-04-30T09:00:00:Z","depth":0,"parameterNumber":3,"parameterNumberName":"V-component_of_WINDS"},"data":[0,0,0,0,0,0,0,0,0,0,0,0,0,0,0,0,0,0,0,0,0,0,0,0,0,0,0,0,0,0,0,0,0,0,0,0,0,0,0,0,0,0,0,0,0,0,0,0,0,0,0,0,0,0,0,0,0,0,4.218,4.2181,0,4.2204,4.2204,4.2205,4.2132,4.213,4.2128,4.2126,4.2148,4.2151,4.2153,0,0,0,0,0,0,0,0,0,0,0,0,0,4.207,4.2072,4.218,4.2181,4.2181,4.2204,4.2204,4.2205,4.2133,4.213,4.2127,4.2125,4.2147,4.215,4.2153,0,0,0,0,0,0,0,0,0,0,0,0,0,4.2108,4.2073,4.218,4.2148,4.2145,4.2204,4.2204,4.2205,4.2133,4.213,4.2127,4.2124,4.2146,4.215,4.2154,4.2244,0,0,4.2166,4.2168,0,0,0,0,0,0,0,0,4.2106,4.2112,4.2152,4.215,4.2147,4.2162,4.2173,4.2218,4.2134,4.2138,4.2126,4.2122,4.2155,4.2158,4.217,4.2245,4.2246,4.2166,4.2169,4.217,4.2171,0,0,0,0,0,0,0,4.2103,4.2111,4.219,4.2153,4.215,4.2131,4.2133,4.2181,4.2165,4.2137,4.2132,4.2136,4.2153,4.2166,4.217,4.2246,4.2166,4.217,4.2172,4.2174,4.2394,4.2398,0,0,0,0,0,0,4.2105,4.2109,4.2189,4.219,4.2118,4.2136,4.2138,4.2161,4.2164,4.2161,4.2139,4.2133,4.2161,4.2165,4.217,4.2274,4.217,4.2174,4.2176,4.2391,4.2395,4.2399,0,0,0,0,0,0,4.2103,4.2113,4.2188,4.2148,4.2156,4.2141,4.2167,4.2163,4.2176,4.2165,4.2161,4.2155,4.2159,4.2165,4.2226,4.2274,4.2176,4.2179,4.2387,4.2392,4.2397,4.2484,0,0,0,0,0,0,4.21,4.2113,4.2148,4.215,4.2159,4.2244,4.217,4.2166,4.2183,4.2175,4.218,4.2177,4.2156,4.222,4.223,4.2277,4.2182,4.2382,4.2389,4.2395,4.2476,4.2491,4.2504,0,0,0,0,0,4.2097,4.2171,4.215,4.216,4.2203,4.2247,4.2252,4.2228,4.2187,4.2221,4.2214,4.2177,4.2268,4.2227,4.2237,4.2287,4.2379,4.2387,4.2395,4.247,4.2488,4.2504,0,0,0,0,0,0,4.2175,4.2171,4.2147,4.2225,4.2237,4.2235,4.2278,4.2248,4.2271,4.2263,4.223,4.2232,4.2298,4.2299,4.2254,4.2373,4.2316,4.2326,4.237,4.2387,4.2401,4.2398,4.2186,0,0,0,0,0,4.2202,4.224,4.2234,4.2303,4.231,4.2293,4.2312,4.2292,4.2302,4.2307,4.2304,4.2316,4.2346,4.2367,4.2395,4.2477,4.2475,4.2516,4.253,4.2541,4.2549,4.259,4.2607,4.2425,4.2425,4.2425,0,0,4.2257,4.2259,4.2285,4.2319,4.2326,4.2364,4.2298,4.2342,4.2369,4.2313,4.237,4.2369,4.2379,4.2451,4.2482,4.2453,4.26,4.2551,4.256,4.2562,4.26,4.2617,4.2633,4.243,4.2429,4.2428,0,0,4.2376,4.2383,4.244,4.2448,4.2459,4.2447,4.2461,4.2464,4.246,4.2518,4.2476,4.2508,4.2562,4.257,4.2582,4.2703,4.2668,4.2713,4.2784,4.2824,4.2839,4.2851,4.2892,4.2907,4.2722,4.2722,4.2722,0,4.2442,4.2499,4.2473,4.2519,4.2534,4.2486,4.2542,4.2551,4.2571,4.2582,4.255,4.2615,4.2619,4.2691,4.272,4.2732,4.2745,4.2711,4.2839,4.2851,4.2862,4.2901,4.2917,4.2727,4.2727,4.2726,4.2726,0,4.2579,4.2619,4.2664,4.2684,4.2704,4.2756,4.2736,4.2759,4.2737,4.2728,4.2786,4.2789,4.2815,4.2831,4.281,4.2899,4.2881,4.2845,4.2786,4.2885,4.2921,4.2936,4.2735,4.2733,4.2731,4.273,0,0,4.2748,4.2752,4.2769,4.2776,4.2785,4.2815,4.2863,4.289,4.2909,4.2925,4.2963,4.301,4.2975,4.2988,4.2968,4.3004,4.3097,4.2963,4.2962,4.2986,4.3192,4.3218,4.3236,4.3075,4.3078,4.308,4.3191,0,4.2863,4.2947,4.2923,4.3006,4.3041,4.2995,4.3037,4.3046,4.3039,4.3067,4.3059,4.3092,4.3046,4.3053,4.3086,4.3079,4.3137,4.3071,4.3108,4.311,4.3105,4.3255,4.3282,4.3386,4.3205,4.3207,4.3209,0,4.3009,4.3029,4.3116,4.3116,4.313,4.3169,4.3189,4.3218,4.3226,4.3218,4.3233,4.3205,4.3251,4.3194,4.3256,4.3211,4.3225,4.3223,4.3227,4.3227,4.3164,4.3257,4.3419,4.3434,4.3231,4.3229,4.3227,0,4.312,4.317,4.3227,4.3235,4.3238,4.3266,4.3268,4.3274,4.329,4.3309,4.3319,4.3343,4.3355,4.3374,4.3352,4.3313,4.3417,4.3358,4.341,4.341,4.3432,4.343,4.3596,4.3445,4.3445,4.3445,4.3444,0,4.325,4.3304,4.3277,4.3312,4.337,4.3343,4.3401,4.3398,4.3403,4.3436,4.3398,4.3429,4.34,4.3429,4.3412,4.3465,4.3471,4.3465,4.3459,4.3467,4.3468,4.3474,4.3466,4.3449,4.3448,4.3447,4.3446,0,4.3384,4.3368,4.3427,4.3425,4.3426,4.3468,4.3466,4.3497,4.3488,4.3529,4.3537,4.3522,4.3553,4.3534,4.3566,4.3555,4.3622,4.3608,4.3619,4.3614,4.3666,4.3661,4.384,4.3861,4.3699,4.37,4.3702,0,4.3467,4.3507,4.3509,4.3528,4.3533,4.3565,4.3581,4.3556,4.3574,4.3587,4.3616,4.3644,4.3665,4.3717,4.3708,4.3731,4.3716,4.3777,4.3719,4.3725,4.3714,4.3711,4.3714,4.3789,4.379,4.3792,4.3793,0,4.3615,4.3605,4.3631,4.3653,4.3674,4.369,4.3704,4.3722,4.3695,4.3718,4.3749,4.3766,4.3798,4.3825,4.3845,4.3846,4.3815,4.3812,4.3825,4.3832,4.3836,4.3832,4.3649,4.3807,4.3806,4.3805,4.3804,4.3804,4.3725,4.3757,4.3763,4.3792,4.38,4.3813,4.3841,4.3835,4.3861,4.3885,4.3868,4.3905,4.3911,4.3934,4.3939,4.3967,4.3942,4.3961,4.3965,4.397,4.3976,4.3833,4.3971,4.397,4.397,4.3969,4.3969,0,4.3869,4.387,4.3897,4.3917,4.3939,4.3909,4.3921,4.3942,4.3975,4.3983,4.4004,4.4039,4.4066,4.4059,4.4082,4.4105,4.4091,4.4112,4.4109,4.4109,4.3998,4.3983,4.4123,4.4123,4.4122,4.4122,4.4122,4.4122,4.3947,4.3999,4.399,4.4045,4.4046,4.4081,4.4091,4.4102,4.4108,4.4149,4.4171,4.4166,4.4168,4.4191,4.4213,4.421,4.4219,4.4245,4.4237,4.4133,4.4117,4.4103,4.4089,4.4248,4.4248,4.4345,4.4346,4.4347]}]]